User: anonymous   Login
Location: Stamford Observatory
(41.1241°N, 73.5498°W)
Time: 16:03:19
(UTC-05:00)
Language:

IRS-P3 - Orbit

View from above orbital plane
View from above orbital plane
View from above satellite
View from above satellite

Ground track
Ground track

The orbit data is extracted from the following two-line orbital elements,

1 23827U 96017A   17348.43209878  .00000012  00000-0  25397-4 0  9992
2 23827  98.7428 284.5387 0002526 224.8824 135.2150 14.22532474128039
Epoch (UTC): 14 December 2017 10:22:13
Eccentricity: 0.0002526
inclination: 98.7428°
perigee height: 815 km
apogee height: 818 km
right ascension of ascending node: 284.5387°
argument of perigee: 224.8824°
revolutions per day: 14.22532474
mean anomaly at epoch: 135.2150°
orbit number at epoch: 12803

The dashed part of the orbit path shows where the satellite is in the earth's shadow,  

DLR